TBA - TO BE ASSIGNED

基本信息
目录编号:
81599
目录名称:
TBA - TO BE ASSIGNED
国际标识:
UNKNOWN
轨道中心:
EARTH
物体状态:
在轨
发射日期:
--
国别:
--
轨道信息
数据来源: 国际轨道数据
星历时间: 2026-09-04T06:19:18+0800
半长轴: 7518.507km
偏心率: 0.0251591
轨道倾角: 67.294°
近地点辐角: 253.801°
升交点赤经: 67.149°
平近点角: 259.325°
近地点: 951.211km
远地点: 1329.529km
周期: 108.133分钟
每日圈数: 13.31697
详细信息
轨道高度:
LEO
数据来源:
AOE Integration Group
参考系:
TEME
时间系统:
UTC
历元类型:
SGP4
2D轨道图
3D轨道图
轨道高度分析图
轨道倾角分析图
轨道综合分析图
查看轨道综合分析图